Weather in Kharachoy

Russia / Chechen Republic     42°54′21″N   46°08′15″E
temp.,
°C
wind,
m/s
gust,
m/s
humid.,
%
clouds,
%
prec.,
mm/h
press.,
hPa
HPBL,
m
5 march, fri
fri500:00−2s22580 0.0 102322
03:00−2s22526 0.0 102221
06:00−2s22501 0.0 102021
09:00+3nne11461 0.0 1019231
12:00+6n11510 0.0 1018531
15:00+7n11520 0.0 1017540
18:00+2sse12680 0.0 101922
21:00+2s22490 0.0 102122
6 march, sat
sat600:00+1sse22400 0.0 102022
03:00+1s23410 0.0 102023
06:00+1s33380 0.0 102024
09:00+8s11400 0.0 1019114
12:00+12nne113524 0.0 1017483
15:00+11nne214012 0.0 1014546
18:00+6s22540 0.0 101423
21:00+5s334833 0.0 101439
7 march, sun
sun700:00+4s3340100 0.0 101237
03:00+3sw2243100 0.0 101336
06:00−1nw4898100 3.6 1019568
09:00−3nw5895100 8.8 1022714
12:00−2wnw4676100 2.0 1022988
15:00−2nw2466100 2.7 10221118
18:00−4ssw117399 0.1 102332
21:00−6s127680 0.1 102424
8 march, mon
mon800:00−5sse227119 0.0 102421
03:00−6s11729 0.0 102421
06:00−6sse11720 0.0 102421
09:00−2nne22650 0.0 1022487
12:000nne336930 0.0 1019689
15:00+1nnw216737 0.1 1017758
18:00−2wsw228375 0.1 101836
21:00−2ssw238587 0.4 1019180
9 march, tue
tue900:00−3ssw1288100 0.5 101935
03:00−4sse118189 0.6 101821
06:00−4sse127674 0.0 101821
09:000nne116639 0.0 1017436
12:00+3nne226616 0.0 1015776
15:00+3ne226829 0.0 1014722
18:000sse118210 0.0 101522
21:00−1ssw22675 0.0 101722